{"data":{"norad_id":62642,"intl_designator":"2025-009AK","name":"FLOCK 4G-29","alt_names":[],"object_type":"PAYLOAD","status":"ACTIVE","operator":null,"country":"US","launch_date":"2025-01-14","launch_site_code":"AFWTR","launch_vehicle":null,"mission":null,"orbit_class":"UNKNOWN","rcs_meters":null,"size_class":null,"mass_kg":null,"dimensions":null,"purposes":["earth_obs"],"wikipedia_slug":null,"has_3d_model":false,"image_url":null,"decayed_at":null,"tle_current":{"epoch":"2026-09-19T10:47:46.801536Z","epoch_age_seconds":105258,"freshness":"FRESH","line1":"1 62642U 25009AK  26262.44984724  .00028787  00000+0  89142-3 0  9994","line2":"2 62642  97.3952 344.1668 0001206 284.5750  75.5359 15.33417831 93326","mean_motion":15.33417831,"eccentricity":0.0001206,"inclination_deg":97.3952,"raan_deg":344.1668,"arg_perigee_deg":284.575,"mean_anomaly_deg":75.5359,"bstar":0.00089142,"rev_number":9332,"period_min":93.907868481021,"perigee_km":464.79865392266,"apogee_km":466.44936907864,"semimajor_km":6843.7610115006,"source":"CELESTRAK","updated_at":"2026-09-20T09:00:34.719667Z"}}}